[TLELIST] Archives

 

[list_settings.list_name] Current TLEs

January 5th 2012 PST

HST 1 20580U 90037B 12003.70530029 .00001815 00000-0 12250-3 0 9174 2 20580 028.4686 146.0963 0003477 098.4410 261.6736 15.02058594989823 ISS (ZARYA) 1 25544U 98067A 12004.35468750 .00015322 00000-0 19750-3 0 7531 2 25544 051.6424 229.0003 0023829 241.2918 110.1226 15.58904224752301 CXO 1 25867U 99040B 12004.95833333 -.00001147 00000-0 00000+0 0 6860 2 25867 071.0139 017.1190 8731693 277.6807 357.7671 00.37798351 8539 ____________________________________________________________________ These 2-Line ...Continue Reading

[list_settings.list_name] Current TLEs

January 4th 2012 PST

HST 1 20580U 90037B 12001.64551719 .00001666 00000-0 11139-3 0 9162 2 20580 028.4689 159.5682 0003375 077.2629 282.8452 15.02050898989512 ISS (ZARYA) 1 25544U 98067A 12003.21996688 .00015263 00000-0 19703-3 0 7476 2 25544 051.6429 234.6985 0023863 236.9198 222.2151 15.58868411752136 CXO 1 25867U 99040B 12004.95833333 -.00001147 00000-0 00000+0 0 6860 2 25867 071.0139 017.1190 8731693 277.6807 357.7671 00.37798351 8539 ____________________________________________________________________ These 2-Line ...Continue Reading

[list_settings.list_name] Current TLEs

January 3rd 2012 PST

HST 1 20580U 90037B 12001.64551719 .00001666 00000-0 11139-3 0 9162 2 20580 028.4689 159.5682 0003375 077.2629 282.8452 15.02050898989512 ISS (ZARYA) 1 25544U 98067A 12002.36652778 .00015053 00000-0 19460-3 0 7411 2 25544 051.6428 238.9830 0023953 233.7408 112.8084 15.58840713751997 CXO 1 25867U 99040B 12002.29166667 -.00001163 00000-0 00000+0 0 6840 2 25867 070.9965 017.2979 8733299 277.6912 354.6891 00.37802903 8529 ____________________________________________________________________ These 2-Line ...Continue Reading

[list_settings.list_name] Current TLEs

January 2nd 2012 PST

HST 1 20580U 90037B 11363.92126854 .00001589 00000-0 10574-3 0 9156 2 20580 028.4690 177.3802 0003400 046.5950 313.4881 15.02042309989101 ISS (ZARYA) 1 25544U 98067A 12001.40285880 .00015002 00000-0 19417-3 0 7350 2 25544 051.6433 243.8197 0024017 229.8319 105.2280 15.58810581751841 CXO 1 25867U 99040B 12002.29166667 -.00001163 00000-0 00000+0 0 6840 2 25867 070.9965 017.2979 8733299 277.6912 354.6891 00.37802903 8529 ____________________________________________________________________ These 2-Line ...Continue Reading

[list_settings.list_name] Current TLEs

January 1st 2012 PST

HST 1 20580U 90037B 11363.92126854 .00001589 00000-0 10574-3 0 9156 2 20580 028.4690 177.3802 0003400 046.5950 313.4881 15.02042309989101 ISS (ZARYA) 1 25544U 98067A 11365.44454861 .00014586 00000-0 18920-3 0 7290 2 25544 051.6436 248.6312 0024042 226.0996 127.6636 15.58779585751698 CXO 1 25867U 99040B 11364.66666667 -.00001068 00000-0 00000+0 0 6839 2 25867 070.9722 017.5030 8735314 277.6758 357.3528 00.37805747 8514 ____________________________________________________________________ These 2-Line ...Continue Reading

[list_settings.list_name] Current TLEs

December 31st 2011 PST

HST 1 20580U 90037B 11363.92126854 .00001589 00000-0 10574-3 0 9156 2 20580 028.4690 177.3802 0003400 046.5950 313.4881 15.02042309989101 ISS (ZARYA) 1 25544U 98067A 11364.12565204 .00014934 00000-0 19382-3 0 7221 2 25544 051.6439 255.2506 0024118 220.9198 286.8842 15.58740699751490 CXO 1 25867U 99040B 11364.66666667 -.00001068 00000-0 00000+0 0 6839 2 25867 070.9722 017.5030 8735314 277.6758 357.3528 00.37805747 8514 ____________________________________________________________________ These 2-Line ...Continue Reading

[list_settings.list_name] Current TLEs

December 30th 2011 PST

HST 1 20580U 90037B 11362.92458795 .00001653 00000-0 11045-3 0 9142 2 20580 028.4692 183.8965 0003326 036.2633 323.8125 15.02039929988958 ISS (ZARYA) 1 25544U 98067A 11363.34890169 .00015976 00000-0 20698-3 0 7190 2 25544 051.6444 259.1493 0024179 218.4460 247.7944 15.58721179751373 CXO 1 25867U 99040B 11364.66666667 -.00001068 00000-0 00000+0 0 6839 2 25867 070.9722 017.5030 8735314 277.6758 357.3528 00.37805747 8514 ____________________________________________________________________ These 2-Line ...Continue Reading

[list_settings.list_name] Current TLEs

December 29th 2011 PST

HST 1 20580U 90037B 11361.92790367 .00001766 00000-0 11890-3 0 9137 2 20580 028.4694 190.4162 0003209 024.8023 335.2544 15.02037785988803 ISS (ZARYA) 1 25544U 98067A 11362.49475694 .00017541 00000-0 22675-3 0 7127 2 25544 051.6448 263.4367 0024143 215.3962 134.7706 15.58699685751231 CXO 1 25867U 99040B 11362.00000000 -.00000971 00000-0 00000+0 0 6829 2 25867 070.9478 017.7115 8735616 277.6486 354.3974 00.37803186 8507 ____________________________________________________________________ These 2-Line ...Continue Reading

[list_settings.list_name] Current TLEs

December 28th 2011 PST

HST 1 20580U 90037B 11359.00429875 .00001927 00000-0 13091-3 0 9129 2 20580 028.4697 209.5320 0003107 350.4396 009.6280 15.02029362988364 ISS (ZARYA) 1 25544U 98067A 11361.36079905 .00018994 00000-0 24526-3 0 7060 2 25544 051.6447 269.1278 0024161 210.9195 252.1108 15.58664126751067 CXO 1 25867U 99040B 11362.00000000 -.00000971 00000-0 00000+0 0 6829 2 25867 070.9478 017.7115 8735616 277.6486 354.3974 00.37803186 8507 ____________________________________________________________________ These 2-Line ...Continue Reading

[list_settings.list_name] Current TLEs

December 27th 2011 PST

HST 1 20580U 90037B 11359.00429875 .00001927 00000-0 13091-3 0 9129 2 20580 028.4697 209.5320 0003107 350.4396 009.6280 15.02029362988364 ISS (ZARYA) 1 25544U 98067A 11360.39968991 .00015324 00000-0 19937-3 0 6999 2 25544 051.6440 273.9550 0024676 207.8778 258.6754 15.58633731750918 CXO 1 25867U 99040B 11362.00000000 -.00000971 00000-0 00000+0 0 6829 2 25867 070.9478 017.7115 8735616 277.6486 354.3974 00.37803186 8507 ____________________________________________________________________ These 2-Line ...Continue Reading
  • This mailing list is a public mailing list - anyone may join or leave, at any time.
  • This mailing list is announce-only.

International Space Station (ISS) / Hubble Space Telescope (HST) / Chandra X-Ray Observatory Orbital Data via EMAIL

Privacy Policy:

Private list